Tracking 19832 objects as of 24-Aug-2019
HD Live streaming from Space Station
objects crossing your sky now

ARIANE 5 DEB (SYLDA)

Track ARIANE 5 DEB (SYLDA) now!


NORAD ID: 44037
Int'l Code: 2019-007D
Perigee: 269.1 km
Apogee: 35,818.8 km
Inclination: 2.6 °
Period: 632.8 minutes
Semi major axis: 24414 km
RCS: Unknown
Launch date: February 5, 2019
Source: France (FR)
Launch site: FRENCH GUIANA (FRGUI)

Note: This is SATELLITE DEBRIS
aabbcc
Your satellite tracking list
Your tracking list is empty




NASA's NSSDC Master Catalog

Two Line Element Set (TLE):
1 44037U 19007D   19235.63030793 +.00001101 +00000-0 +43709-3 0  9995
2 44037 002.5643 191.4953 7280327 343.8564 001.6134 02.27572394004521
Source of the keplerian elements: AFSPC